COSMOS 1275 DEB, 42198

Orbit data source: Space-Track

COSMOS 1275 DEB, 42198 is space debris in LEO originally from a launch on Thu, 04 Jun 1981 UTC launched from the Plesetsk Missile And Space Complex (PKMTR). Debris objects in space refer to the collection of defunct objects orbiting the Earth. Examples of debris include non-operational satellites, rocket bodies, and fragments generated from explosions, collisions, or faulty payload assembly.

Loading next visibility...
Identifier
42198, 1981-053TN
Orbit
LEO
Last TLE update
8 months ago
Origin
Manufacturer
Unknown
Mission
Spacecraft
Bus & Motor
Unknown
Mass
Unknown
Launch date (UTC)
1981-06-04 (44 years ago)
Launch vehicle
Unknown
Launch site
Plesetsk Missile And Space Complex (PKMTR)
Object type
Payload
Rocket body
Debris
Shape & HBR
Unknown
Radar Cross Section
Small (<0.1 m²)

Expand to show TLE details & history

TLE from 8 months ago
0 COSMOS 1275 DEB
1 42198U 81053TN  24286.02299061  .00006623  00000-0  54198-2 0  9998
2 42198  82.8091  32.2920 0036937 313.4070  46.4020 13.89053029551500
Epoch: 2024-10-12T00:33Z
TLE epoch observation values (Epoch: 2024-10-12T00:33:06.388Z)
Latitude
-0.00002°
Longitude
2.93059°
Altitude
916.296 km
Speed
7.403 km/s
True Right ascension
02h 09m 10s
True Declination
0° 00' 00"
Sunlit
Object was in full shadow at epoch
Visualization orbit readout
Latitude
-40.40582°
Longitude
-2.7356°
Altitude
943.707 km
Speed
7.375 km/s
Apparent Right ascension
05h 50m 33s
Apparent Declination
-75° 15' 39"
Sunlit
Object is in full shadow
Visualization observer readout
Local Sidereal Time
00:08:53
Azimuth
161.428° S
Elevation
-37.226°
Doppler factor
1
Orbital elements
Apogee altitude
956.077 km
Perigee altitude
902.095 km
Semi-major axis
7,307.223 km
Eccentricity
0.00369
Inclination
82.8091°
RAAN
32.292°
Arg. of periapsis
313.407°
True anomaly
Unknown
Mean anomaly
46.402°
Eccentric anomaly
Unknown
Mean motion
3.47468 °/min
Orbital period
103.61 mins
BSTAR
0.0054198
Loading maneuver chart data...
Loading SW <> Apogee altitude chart data...
Loading historical data...
Loading historical data...
Loading historical data...
Loading historical data...
Loading historical data...
Loading historical data...
Loading historical data...

COSMOS 1275 DEB Visibility forecast

Observer location: undefined°, undefined°

Span
Click to sort rows by Start time (UTC) header in descending order
Start Az.
Max El. time (UTC)
Max El. Az.
Max El.
End time (UTC)
End Az.
11 mins2025-06-16 14:44:04.667Z339.983° N2025-06-16 14:49:04.667Z276.124° WNW37.186°2025-06-16 14:55:04.667Z195.902° SSW
9 mins2025-06-17 02:21:04.667Z150.577° SSE2025-06-17 02:25:04.667Z80.758° E34.109°2025-06-17 02:30:04.667Z21.612° NNE
7 mins2025-06-17 04:06:04.667Z246.729° WSW2025-06-17 04:09:04.667Z287.284° WNW23.185°2025-06-17 04:13:04.667Z336.606° NNW
8 mins2025-06-17 13:10:04.667Z23.388° NE2025-06-17 13:14:04.667Z80.072° E27.297°2025-06-17 13:18:04.667Z129.727° SE
|